Location: Dodge City Community College Clyde Tombaugh Astronomy Center
(37.7756°N, 100.0412°W)
Time: 03:00:18
(UTC+00:00)

Cosmos 2228 Rocket - Pass Details

Date: 05 July 2022
Orbit: 618 x 651 km, 82.5° (Epoch: 09 August)

Event Time Altitude Azimuth Distance (km) Brightness Sun altitude
Rises 09:34:21 0° 1° (N) 2,919 7.3 -17.5°
Reaches altitude 10° 09:36:42 10° 9° (N) 2,012 6.5 -17.2°
Maximum altitude 09:40:54 40° 79° (E) 941 4.4 -16.7°
Drops below altitude 10° 09:45:06 10° 149° (SSE) 2,018 5.5 -16.1°
Sets 09:47:28 0° 157° (SSE) 2,928 6.3 -15.8°
